Regional Weather Roundup
Issued by NWS

Home | Current Version | Previous Version | Text Only | Print | Product List | Glossary Off
Versions: 1 2 3 4 5 6 7 8 9 10 11 12 13 14 15 16 17 18 19 20 21 22 23 24 25 26 27 28 29 30 31 32 33 34 35 36 37 38 39 40 41 42 43 44 45 46 47 48 49 50

972
ASUS45 KTFX 270210
RWRMT
MONTANA REGIONAL WEATHER ROUNDUP
NATIONAL WEATHER SERVICE GREAT FALLS MT
800 PM MDT THU MAY 26 2016

NOTE: "FAIR" INDICATES FEW OR NO CLOUDS BELOW 12000 FEET WITH NO
SIGNIFICANT WEATHER AND/OR OBSTRUCTIONS TO VISIBILITY.

MTZ001>007-043-270300-
WEST OF THE DIVIDE

CITY           SKY/WX    TMP DP  RH WIND       PRES   REMARKS
KALISPELL      CLOUDY    55  52  89 N9        29.90S
MISSOULA       CLOUDY    55  48  77 VRB3      29.93F
BUTTE          CLOUDY    54  39  57 S14       29.96R
MULLAN PASS    PTSUNNY   43  41  93 VRB5      29.99F
ANACONDA         N/A     55  45  67 N7        29.94R
DEER LODGE       N/A     57  43  58 NW3       29.95R
EUREKA           N/A     64  41  42 SW5       29.88S
HAMILTON         N/A     63  43  48 N5        29.90S
LIBBY            N/A     64  41  42 NW3       29.89S
$$

MTZ008-052>055-270300-
SOUTHWEST MONTANA

CITY           SKY/WX    TMP DP  RH WIND       PRES   REMARKS
BOZEMAN        CLOUDY    56  46  69 W5        29.93F
DILLON         MOCLDY    60  37  42 NE12      29.92S
W YELLOWSTONE  LGT RAIN  48  37  66 NE9G18    30.04R
ENNIS          CLEAR     57  43  58 N16G23    29.99R
$$

MTZ009-010-012-014-046-048-049-054-270300-
EAST SLOPES AND CENTRAL MONTANA

CITY           SKY/WX    TMP DP  RH WIND       PRES   REMARKS
CUT BANK       LGT RAIN  49  48  97 S5        29.91F
GREAT FALLS    CLOUDY    57  45  64 NE7       29.90F
MALMSTROM AFB  CLOUDY    55  47  75 N2        29.91S
HELENA         PTCLDY    59  46  62 E7        29.89F
CHOTEAU          N/A     54  46  76 CALM      29.93F
$$

MTZ011-013-016-021-045-047-050-051-270300-
NORTH CENTRAL MONTANA

CITY           SKY/WX    TMP DP  RH WIND       PRES   REMARKS
HAVRE          CLOUDY    63  48  58 E7        29.88
LEWISTOWN      CLOUDY    59  45  59 N8        29.92R
N BAR RANCH      N/A     55  43  62 N9        29.95R
CHINOOK          N/A     63  52  67 SE5       29.89R
$$

MTZ017>020-022>027-061-062-270300-
NORTHEAST MONTANA

CITY           SKY/WX    TMP DP  RH WIND       PRES   REMARKS
GLASGOW        CLOUDY    58  51  78 NE13      29.83R
JORDAN           N/A     59  48  67 NW12      29.84R
SIDNEY         LGT RAIN  61  50  67 N12       29.80R
WOLF POINT     CLOUDY    62  52  69 NE17      29.82R
$$

MTZ028>42-056>058-270300-
SOUTHCENTRAL AND SOUTHEAST MONTANA

CITY           SKY/WX    TMP DP  RH WIND       PRES   REMARKS
BAKER          CLEAR     54  44  69 W7        29.84R
BILLINGS       CLOUDY    58  44  60 W10       29.90S
LIVINGSTON     CLOUDY    55  43  63 CALM      29.94F
MILES CITY     PTCLDY    61  46  57 NW12      29.83S
FORSYTH          N/A     59  48  67 CALM      29.85S
$$

REGIONAL REPORTS...DAKOTAS

CITY           SKY/WX    TMP DP  RH WIND       PRES   REMARKS
WILLISTON      CLOUDY    58  48  69 NE8       29.82R
MINOT          CLOUDY    57  51  80 W6        29.80F
DICKINSON      CLEAR     56  42  59 W8        29.81R
BEACH            N/A     55  50  82 W6        29.86R
CROSBY         LGT RAIN  54  54 100 E5        29.86S
WATFORD CITY   MOCLDY    55  50  82 NE8       29.83R
BISMARCK       CLEAR     65  48  54 N7        29.78R
GRAND FORKS    PTCLDY    63  55  75 NW6       29.78R
FARGO          PTCLDY    69  56  62 CALM      29.76R
BUFFALO SD       N/A     59  43  55 N10       29.79R
RAPID CITY     MOCLDY    60  49  66 N5        29.83R
$$

REGIONAL REPORTS...WYOMING/IDAHO/WASHINGTON

CITY           SKY/WX    TMP DP  RH WIND       PRES   REMARKS
GILLETTE       CLEAR     56  37  49 N10       29.91R
SHERIDAN       CLEAR     58  46  64 NW3       29.90S
BUFFALO WY     PTCLDY    54  43  66 N7        29.94R
CODY           CLOUDY    54  41  62 CALM      29.95S
YELLOWSTONE LA   N/A     37  34  89 CALM      30.13R
IDAHO FALLS    CLEAR     61  41  47 SW7       29.93S
SALMON         PTSUNNY   66  39  37 SW5       29.85S
BOISE          PTSUNNY   73  34  23 N5        29.89F
SPOKANE        PTSUNNY   64  39  39 SW14      29.92F
$$

REGIONAL REPORTS...ALBERTA

CITY           SKY/WX    TMP DP  RH WIND       PRES   REMARKS
EDMONTON       MOSUNNY   64  50  59 CALM      29.78S
CALGARY        PTSUNNY   55  45  67 SE17      29.81F
LETHBRIDGE     PTSUNNY   63  45  51 SW12      29.83S
MEDICINE HAT   PTSUNNY   64  48  55 SE12G20   29.84S
WATERTON GATE    N/A     54  41  62 SW13G21     N/A
CARDSTON         N/A     57  41  54 SW7         N/A
MILK RIVER       N/A     61  43  51 SW15G21     N/A
$$

REGIONAL REPORTS...SASKATCHEWAN

CITY           SKY/WX    TMP DP  RH WIND       PRES   REMARKS
SWIFT CURRENT  CLEAR     59  48  67 SE6       29.88R
REGINA         LGT RAIN  55  50  82 SE8       29.87S
SASKATOON      PTCLDY    68  50  52 S6        29.84R
CYPRESS HILLS    N/A     54  43  66 SE5         N/A
VAL MARIE        N/A     55  48  76 NE7         N/A
ROCKGLEN         N/A     54  50  87 NE3         N/A
ASSINIBOIA       N/A     63  54  72 SE6         N/A
$$




USA.gov is the U.S. government's official web portal to all federal, state and local government web resources and services.